Location: Bluff Heights
(33.7692°N, 118.1592°W)
Time: 00:12:12
(UTC+00:00)

Tiros 1 - Pass Details

Date: 26 July 2021
Orbit: 630 x 663 km, 48.4° (Epoch: 20 September)

Event Time Altitude Azimuth Distance (km) Brightness Sun altitude
Rises 09:24:04 0° 314° (NW) 2,939 10.8 -33.2°
Reaches altitude 10° 09:26:37 10° 324° (NW) 2,023 10.0 -33.0°
Enters shadow 09:27:44 16° 333° (NNW) 1,660 9.6 -32.9°
Maximum altitude 09:30:47 32° 28° (NNE) 1,091 - -32.6°
Exits shadow 09:34:45 11° 91° (E) 1,949 9.9 -32.2°
Drops below altitude 10° 09:34:55 10° 92° (E) 2,005 9.9 -32.2°
Sets 09:37:26 0° 102° (ESE) 2,908 10.7 -32.0°
